Lid_Strength_Index
0 0 1 0 0 1 0 -0 -1 -1 -1 -1 -1 -1 -1 -0 -0 -1 -0 -0 -0 0
0 0 0 -0 -0 0 -0 -0 -1 -1 -1 -1 -1 -1 -1 -0 -0 -0 -0 -0 -0 0
0 0 -0 0 0 -0 -0 -1 -1 -0 -0 -1 -1 -1 -1 -0 -1 -0 -0 -0 -0 0
1 0 -0 0 -0 -0 -0 -0 -0 -0 -0 -0 -0 -0 -0 -0 -0 0 -0 -0 0 0
1 0 1 0 0 -0 -0 -0 -0 -0 -0 -0 -0 -0 -0 0 -0 0 0 0 0 0
1 1 1 0 0 -0 -0 -0 -0 -0 0 0 -0 -0 -0 -0 0 0 0 0 0 0
1 1 1 0 0 0 -0 0 0 -0 -0 -0 -0 -0 -0 -0 0 0 0 -0 -0 -0
1 1 0 0 0 0 0 0 -0 0 -0 -0 0 0 -0 0 0 0 0 -0 -0 -0
1 1 1 1 1 0 0 0 0 0 0 0 0 3 4 1 0 0 0 1 -0 -0
1 1 1 1 1 1 1 0 1 1 0 1 0 5 5 4 0 0 0 0 0 0
1 1 1 1 1 1 1 1 1 1 0 0 0 5 6 5 0 0 0 -0 0 0
1 2 2 2 2 1 1 1 1 1 1 1 0 6 6 5 0 1 1 0 -0 0
1 2 2 2 2 1 1 1 1 1 0 2 1 7 8 5 1 1 1 0 0 4
2 2 1 1 1 1 1 1 1 1 1 0 1 0 7 8 1 1 1 1 1 1